Hilo, HI

3:21 AM HST on August 29, 2016 (GMT -1000)
Hilo International

Weather History for PHTO - June, 2013

Change the Weather History Date:

Tuesday, June 11, 2013

  Actual Average Record
Temperature  
Mean Temperature 76 °F 75 °F  
Max Temperature 84 °F 82 °F 87 °F (1986)
Min Temperature 68 °F 68 °F 65 °F (1958)
Degree Days  
Heating Degree Days 0 0  
Month to date heating degree days 0 0  
Since 1 June heating degree days 0 0  
Since 1 July heating degree days 0 0  
Cooling Degree Days 11 10  
Month to date cooling degree days 118 110  
Year to date cooling degree days 1271 1178  
Since 1 June cooling degree days 118 110  
Growing Degree Days 25 (Base 50)    
Moisture  
Dew Point 64 °F    
Average Humidity 65    
Maximum Humidity 79    
Minimum Humidity 51    
Precipitation  
Precipitation 0.01 in 0.23 in 2.04 in (1980)
Month to date precipitation 0.59 2.38  
Year to date precipitation 47.63 54.29  
Snow  
Snow 0.00 in - - ()
Month to date snowfall 0.0  
Since 1 June snowfall 0.0  
Since 1 July snowfall 0.0  
Snow Depth 0.00 in    
Sea Level Pressure  
Sea Level Pressure 30.04 in    
Wind  
Wind Speed 6 mph (SW)    
Max Wind Speed 16 mph    
Max Gust Speed 18 mph    
Visibility 10 miles    
Events Rain    
T = Trace of Precipitation, MM = Missing Value Source: NWS Daily Summary

Daily Weather History Graph

Daily Weather History Graph

Search for Another Location

Airport or City:

Trip Planner

Search our weather history database for the weather conditions in past years. The results will help you decide how hot, cold, wet, or windy it might be!

Date:

Astronomy

Jun. 11, 2013 Rise Set
Actual Time 5:40 AM HST 6:59 PM HST
Civil Twilight 5:16 AM HST 7:23 PM HST
Nautical Twilight 4:47 AM HST 7:52 PM HST
Astronomical Twilight 4:17 AM HST 8:22 PM HST
Moon 8:18 AM HST (6/11) 9:27 PM HST (6/11)
Length of Visible Light 14h 07m
Length of Day
13h 18m
Waxing Crescent, 9% of the Moon is Illuminated
Jun 11
Waxing Crescent
Jun 16
First Quarter
Jun 23
Full
Jun 29
Last Quarter
Jul 7
New

Hourly Weather History & Observations

Time (HST) Temp. Heat Index Dew Point Humidity Pressure Visibility Wind Dir Wind Speed Gust Speed Precip Events Conditions
12:53 AM 72.0 °F - 64.0 °F 76% 30.04 in 10.0 mi West 4.6 mph - 0.00 in   Overcast
1:53 AM 70.0 °F - 63.0 °F 78% 30.02 in 10.0 mi SW 3.5 mph - N/A   Scattered Clouds
2:53 AM 69.1 °F - 62.1 °F 78% 30.02 in 10.0 mi SW 4.6 mph - N/A   Mostly Cloudy
3:53 AM 68.0 °F - 61.0 °F 78% 30.02 in 10.0 mi WSW 5.8 mph - N/A   Partly Cloudy
4:53 AM 69.1 °F - 62.1 °F 78% 30.02 in 10.0 mi WSW 6.9 mph - N/A   Mostly Cloudy
5:53 AM 70.0 °F - 63.0 °F 78% 30.03 in 10.0 mi SW 5.8 mph - N/A   Mostly Cloudy
6:53 AM 73.0 °F - 64.0 °F 73% 30.04 in 10.0 mi WSW 4.6 mph - N/A   Mostly Cloudy
7:53 AM 73.9 °F - 64.0 °F 71% 30.06 in 10.0 mi WSW 6.9 mph - 0.00 in Rain Light Rain
8:53 AM 77.0 °F - 64.0 °F 64% 30.06 in 10.0 mi WSW 5.8 mph - 0.00 in   Overcast
9:53 AM 78.1 °F - 61.0 °F 56% 30.06 in 10.0 mi Calm Calm - N/A   Overcast
10:53 AM 75.9 °F - 64.9 °F 69% 30.06 in 10.0 mi East 12.7 mph - 0.01 in   Overcast
11:53 AM 80.1 °F 81.9 °F 64.9 °F 60% 30.05 in 10.0 mi East 12.7 mph - N/A   Overcast
12:53 PM 82.0 °F 83.0 °F 62.1 °F 51% 30.03 in 10.0 mi Calm Calm - N/A   Mostly Cloudy
1:53 PM 82.9 °F 83.7 °F 62.1 °F 49% 30.01 in 10.0 mi SSE 8.1 mph - N/A   Mostly Cloudy
2:53 PM 82.9 °F 83.7 °F 62.1 °F 49% 30.01 in 10.0 mi East 10.4 mph - N/A   Mostly Cloudy
3:53 PM 81.0 °F 81.6 °F 60.1 °F 49% 30.00 in 10.0 mi SE 8.1 mph - N/A   Mostly Cloudy
4:53 PM 79.0 °F - 64.0 °F 60% 30.00 in 10.0 mi ESE 8.1 mph - N/A   Overcast
5:53 PM 73.9 °F - 66.9 °F 79% 30.02 in 10.0 mi East 12.7 mph - N/A   Overcast
6:53 PM 73.9 °F - 64.0 °F 71% 30.03 in 10.0 mi WSW 6.9 mph - 0.00 in   Overcast
7:53 PM 73.9 °F - 66.0 °F 76% 30.05 in 10.0 mi West 5.8 mph - N/A   Overcast
8:53 PM 73.0 °F - 64.9 °F 76% 30.06 in 10.0 mi WSW 4.6 mph - N/A   Mostly Cloudy
9:53 PM 73.0 °F - 64.9 °F 76% 30.07 in 10.0 mi WSW 5.8 mph - N/A   Mostly Cloudy
10:53 PM 73.0 °F - 64.9 °F 76% 30.08 in 10.0 mi WSW 3.5 mph - N/A   Overcast
11:32 PM 73.0 °F - 66.0 °F 79% 30.08 in 10.0 mi SSW 3.5 mph - N/A   Overcast
11:53 PM 73.0 °F - 66.0 °F 79% 30.07 in 10.0 mi SW 4.6 mph - N/A   Overcast